When you browse on this site, cookies collect data to enhance your experience and personalize the content and advertising you see.
Visit our Privacy Policy to learn more. By continuing to use the site, you agree to this use of cookies and data.
  • In Sweden
  • List of Countries
  • For 7 days
  • Water Temperature
  • Weather Map
  • Weather Widgets
  • user-avatar
    Login

    Hourly Weather Cagnes-sur-Mer

    Today, 24 August, Saturday

    Time Temperature Precipitation Wind Pressure Humidity
    00:00 +24°C° 0.1 mm 2 mps 760 mmHg 75%
    01:00 +24°C° 0 mm 2 mps 760 mmHg 75%
    02:00 +24°C° 0 mm 2 mps 760 mmHg 75%
    03:00 +24°C° 0 mm 2 mps 760 mmHg 74%
    04:00 +24°C° 0 mm 2 mps 760 mmHg 73%
    05:00 +24°C° 0 mm 2 mps 759 mmHg 72%
    06:00 +25°C° 0 mm 1 mps 759 mmHg 70%
    07:00 +27°C° 0 mm 1 mps 760 mmHg 62%
    08:00 +29°C° 0 mm 1 mps 760 mmHg 54%
    09:00 +31°C° 0 mm 1 mps 760 mmHg 46%
    10:00 +31°C° 0.1 mm 2 mps 760 mmHg 47%
    11:00 +32°C° 0.1 mm 2 mps 759 mmHg 48%
    12:00 +32°C° 0.1 mm 2 mps 759 mmHg 49%
    13:00 +31°C° 0.4 mm 2 mps 759 mmHg 53%
    14:00 +31°C° 0.4 mm 2 mps 759 mmHg 56%
    15:00 +30°C° 0.4 mm 2 mps 758 mmHg 60%
    16:00 +29°C° 0.2 mm 2 mps 758 mmHg 64%
    17:00 +29°C° 0.2 mm 2 mps 758 mmHg 67%
    18:00 +28°C° 0.2 mm 1 mps 758 mmHg 70%
    19:00 +27°C° 0 mm 1 mps 758 mmHg 71%
    20:00 +26°C° 0 mm 1 mps 758 mmHg 72%
    21:00 +26°C° 0 mm 1 mps 759 mmHg 73%
    22:00 +25°C° 0 mm 1 mps 759 mmHg 73%
    23:00 +25°C° 0 mm 1 mps 759 mmHg 73%

    Tomorrow, 25 August, Sunday

    Time Temperature Precipitation Wind Pressure Humidity
    00:00 +25°C° 0 mm 1 mps 759 mmHg 72%
    01:00 +25°C° 0 mm 1 mps 758 mmHg 72%
    02:00 +25°C° 0 mm 1 mps 758 mmHg 72%
    03:00 +24°C° 0 mm 1 mps 758 mmHg 72%
    04:00 +25°C° 0 mm 2 mps 758 mmHg 71%
    05:00 +25°C° 0 mm 2 mps 758 mmHg 70%
    06:00 +25°C° 0 mm 2 mps 758 mmHg 69%
    07:00 +27°C° 0 mm 2 mps 758 mmHg 62%
    08:00 +29°C° 0 mm 2 mps 758 mmHg 56%
    09:00 +31°C° 0 mm 2 mps 759 mmHg 49%
    10:00 +32°C° 0.1 mm 2 mps 759 mmHg 50%
    11:00 +32°C° 0.1 mm 2 mps 758 mmHg 50%
    12:00 +32°C° 0.1 mm 2 mps 758 mmHg 50%
    13:00 +32°C° 0.6 mm 2 mps 758 mmHg 53%
    14:00 +31°C° 0.6 mm 1 mps 758 mmHg 55%
    15:00 +31°C° 0.6 mm 1 mps 758 mmHg 58%
    16:00 +30°C° 0.2 mm 1 mps 757 mmHg 61%
    17:00 +29°C° 0.2 mm 1 mps 757 mmHg 65%
    18:00 +28°C° 0.2 mm 1 mps 757 mmHg 69%
    19:00 +27°C° 0 mm 1 mps 758 mmHg 70%
    20:00 +27°C° 0 mm 1 mps 758 mmHg 71%
    21:00 +26°C° 0 mm 1 mps 758 mmHg 72%
    22:00 +26°C° 0 mm 1 mps 758 mmHg 72%
    23:00 +26°C° 0 mm 1 mps 758 mmHg 72%

    Day after tomorrow, 26 August, Monday

    Time Temperature Precipitation Wind Pressure Humidity
    00:00 +25°C° 0 mm 2 mps 758 mmHg 72%
    01:00 +25°C° 0 mm 2 mps 758 mmHg 71%
    02:00 +25°C° 0 mm 2 mps 758 mmHg 71%
    03:00 +25°C° 0 mm 2 mps 757 mmHg 70%
    04:00 +25°C° 0 mm 1 mps 758 mmHg 69%
    05:00 +26°C° 0 mm 1 mps 758 mmHg 67%
    06:00 +26°C° 0 mm 1 mps 758 mmHg 66%
    07:00 +28°C° 0 mm 1 mps 758 mmHg 60%
    08:00 +30°C° 0 mm 1 mps 758 mmHg 53%
    09:00 +32°C° 0 mm 1 mps 758 mmHg 47%
    10:00 +32°C° 0.1 mm 1 mps 758 mmHg 46%
    11:00 +34°C° 0.1 mm 2 mps 758 mmHg 45%
    12:00 +34°C° 0.1 mm 2 mps 758 mmHg 45%
    13:00 +34°C° 0.1 mm 2 mps 758 mmHg 45%
    14:00 +34°C° 0.1 mm 2 mps 758 mmHg 45%
    15:00 +34°C° 0.1 mm 2 mps 757 mmHg 46%
    16:00 +31°C° 0 mm 2 mps 757 mmHg 50%
    17:00 +30°C° 0 mm 2 mps 757 mmHg 55%
    18:00 +28°C° 0 mm 2 mps 757 mmHg 59%
    19:00 +28°C° 0 mm 1 mps 757 mmHg 61%
    20:00 +27°C° 0 mm 1 mps 758 mmHg 63%
    21:00 +26°C° 0 mm 1 mps 758 mmHg 65%
    22:00 +26°C° 0 mm 1 mps 758 mmHg 66%
    23:00 +26°C° 0 mm 1 mps 758 mmHg 66%

    27 August, Tuesday

    Time Temperature Precipitation Wind Pressure Humidity
    00:00 +26°C° 0 mm 1 mps 758 mmHg 67%
    01:00 +26°C° 0 mm 1 mps 758 mmHg 67%
    02:00 +25°C° 0 mm 1 mps 758 mmHg 67%
    03:00 +25°C° 0 mm 1 mps 758 mmHg 67%
    04:00 +26°C° 0 mm 1 mps 758 mmHg 66%
    05:00 +26°C° 0 mm 1 mps 758 mmHg 65%
    06:00 +26°C° 0 mm 1 mps 758 mmHg 65%
    07:00 +28°C° 0 mm 1 mps 758 mmHg 58%
    08:00 +30°C° 0 mm 1 mps 758 mmHg 52%
    09:00 +31°C° 0 mm 2 mps 758 mmHg 46%
    10:00 +32°C° 0 mm 2 mps 758 mmHg 44%
    11:00 +32°C° 0 mm 2 mps 758 mmHg 41%
    12:00 +34°C° 0 mm 2 mps 759 mmHg 39%
    13:00 +32°C° 0 mm 2 mps 758 mmHg 42%
    14:00 +31°C° 0 mm 1 mps 758 mmHg 46%
    15:00 +30°C° 0 mm 1 mps 758 mmHg 49%
    16:00 +29°C° 0 mm 1 mps 757 mmHg 52%
    17:00 +28°C° 0 mm 1 mps 757 mmHg 56%
    18:00 +27°C° 0 mm 1 mps 757 mmHg 60%
    19:00 +27°C° 0 mm 2 mps 758 mmHg 61%
    20:00 +27°C° 0 mm 3 mps 758 mmHg 63%
    21:00 +26°C° 0 mm 3 mps 758 mmHg 65%
    22:00 +26°C° 0 mm 3 mps 758 mmHg 64%
    23:00 +26°C° 0 mm 2 mps 758 mmHg 63%

    28 August, Wednesday

    Time Temperature Precipitation Wind Pressure Humidity
    00:00 +25°C° 0 mm 2 mps 758 mmHg 63%
    01:00 +25°C° 0 mm 2 mps 757 mmHg 61%
    02:00 +25°C° 0 mm 1 mps 757 mmHg 59%
    03:00 +25°C° 0 mm 1 mps 757 mmHg 58%
    04:00 +25°C° 0.1 mm 1 mps 757 mmHg 58%
    05:00 +25°C° 0.1 mm 2 mps 757 mmHg 58%
    06:00 +25°C° 0.1 mm 2 mps 757 mmHg 58%
    07:00 +27°C° 0.4 mm 2 mps 757 mmHg 55%
    08:00 +28°C° 0.4 mm 2 mps 757 mmHg 53%
    09:00 +30°C° 0.4 mm 2 mps 757 mmHg 50%
    10:00 +29°C° 0.6 mm 2 mps 757 mmHg 55%
    11:00 +29°C° 0.6 mm 2 mps 756 mmHg 60%
    12:00 +28°C° 0.6 mm 3 mps 756 mmHg 66%
    13:00 +28°C° 0.7 mm 2 mps 756 mmHg 65%
    14:00 +28°C° 0.7 mm 2 mps 756 mmHg 65%
    15:00 +28°C° 0.7 mm 2 mps 756 mmHg 65%
    16:00 +27°C° 0.2 mm 2 mps 756 mmHg 67%
    17:00 +26°C° 0.2 mm 1 mps 756 mmHg 69%
    18:00 +26°C° 0.2 mm 1 mps 756 mmHg 71%
    19:00 +25°C° 0 mm 1 mps 756 mmHg 72%
    20:00 +25°C° 0 mm 2 mps 756 mmHg 73%
    21:00 +24°C° 0 mm 2 mps 756 mmHg 74%
    22:00 +24°C° 0 mm 2 mps 756 mmHg 73%
    23:00 +24°C° 0 mm 2 mps 756 mmHg 72%

    29 August, Thursday

    Time Temperature Precipitation Wind Pressure Humidity
    00:00 +24°C° 0 mm 2 mps 756 mmHg 71%
    01:00 +23°C° 0 mm 2 mps 756 mmHg 71%
    02:00 +23°C° 0 mm 2 mps 755 mmHg 71%
    03:00 +23°C° 0 mm 1 mps 755 mmHg 70%
    04:00 +23°C° 0 mm 2 mps 755 mmHg 69%
    05:00 +24°C° 0 mm 2 mps 755 mmHg 68%
    06:00 +24°C° 0 mm 2 mps 755 mmHg 67%
    07:00 +26°C° 0 mm 1 mps 755 mmHg 60%
    08:00 +29°C° 0 mm 1 mps 755 mmHg 52%
    09:00 +31°C° 0 mm 1 mps 755 mmHg 45%
    10:00 +31°C° 0 mm 2 mps 755 mmHg 45%
    11:00 +31°C° 0 mm 2 mps 755 mmHg 45%
    12:00 +33°C° 0 mm 3 mps 755 mmHg 45%
    13:00 +33°C° 0.1 mm 3 mps 755 mmHg 47%
    14:00 +31°C° 0.1 mm 3 mps 754 mmHg 48%
    15:00 +31°C° 0.1 mm 3 mps 754 mmHg 49%
    16:00 +30°C° 0.1 mm 2 mps 754 mmHg 55%
    17:00 +28°C° 0.1 mm 2 mps 754 mmHg 60%
    18:00 +27°C° 0.1 mm 2 mps 754 mmHg 66%
    19:00 +26°C° 0 mm 1 mps 754 mmHg 67%
    20:00 +26°C° 0 mm 1 mps 755 mmHg 68%
    21:00 +26°C° 0 mm 1 mps 755 mmHg 69%
    22:00 +25°C° 0 mm 1 mps 755 mmHg 69%
    23:00 +25°C° 0 mm 1 mps 755 mmHg 69%
    Show more